Regional Weather Roundup
Issued by NWS

Home | Current Version | Previous Version | Text Only | Print | Product List | Glossary On
Versions: 1 2 3 4 5 6 7 8 9 10 11 12 13 14 15 16 17 18 19 20 21 22 23 24 25 26 27 28 29 30 31 32 33 34 35 36 37 38 39 40 41 42 43 44 45 46 47 48 49 50
000
ASUS43 KDTX 232110
RWRMI
MICHIGAN HOURLY REGIONAL WEATHER ROUNDUP
NATIONAL WEATHER SERVICE DETROIT/PONTIAC MI
500 PM EDT TUE AUG 23 2016

NOTE: "FAIR" INDICATES FEW OR NO CLOUDS BELOW 12,000 FEET WITH NO
SIGNIFICANT WEATHER AND/OR OBSTRUCTION TO VISIBILITY.

MIZ047>049-052>055-059>063-066>070-074>076-081>083-232200-
SOUTHEAST LOWER MICHIGAN

CITY           SKY/WX    TMP DP  RH WIND       PRES   REMARKS
ADRIAN         MOSUNNY   78  59  51 SW8       30.23S
ALMA           CLOUDY    79  62  54 SW10      30.19S
ANN ARBOR      MOSUNNY   79  59  50 S9G20     30.22S
BAD AXE        SUNNY     79  58  47 SW10      30.19S
CARO           SUNNY     80  60  51 SW9       30.18F
DETROIT CITY   PTSUNNY   79  60  52 S14       30.21F
DETROIT        CLOUDY    80  60  50 SW9       30.22F
FLINT          MOSUNNY   82  59  45 S8        30.20F
GROSSE ILE     MOSUNNY   79  61  54 S9        30.21F
HILLSDALE      MOSUNNY   78  58  50 S6        30.22F
HOWELL         MOSUNNY   78  58  50 SW10      30.21F

CITY           SKY/WX    TMP DP  RH WIND       PRES   REMARKS
JACKSON        CLOUDY    79  58  48 SW12      30.21F
LAMBERTVILLE   MOSUNNY   81  58  46 S8        30.23S
LANSING        MOSUNNY   80  58  46 S12       30.20F
LAPEER         FAIR      81  57  44 S10       30.20F
MASON          MOSUNNY   78  59  51 SW8       30.21F
MONROE         CLOUDY    81  64  56 SW9       30.21F
MT. CLEMENS    PTSUNNY   80  63  55 SE16      30.18F
PONTIAC        PTSUNNY   78  58  49 S12       30.21S
PORT HOPE        N/A     80  60  50 SW7G18    30.16
PORT HURON     SUNNY     79  61  53 S12       30.21S
TRI CITIES     SUNNY     80  60  50 SW12      30.18F
MIDLAND        FAIR      80  59  47 SW9G18    30.17S
TROY           CLOUDY    82  53  36 SW12G17   30.23S
SAGINAW HB     SUNNY     81  59  47 S12G17    30.17F
$$
MIZ043>046-050>051-056>058-064>065-071>073-077>080-232200-
SOUTHWEST LOWER MICHIGAN

CITY           SKY/WX    TMP DP  RH WIND       PRES   REMARKS
BATTLE CREEK   PTSUNNY   75  60  59 S10       30.21F
BENTON HARBOR  PTSUNNY   79  58  48 S8        30.17F
BIG RAPIDS     CLOUDY    79  56  44 W12G17    30.17S
COLDWATER      MOSUNNY   78  57  48 S3        30.21F
FREMONT        FAIR      77  53  43 SW13G18   30.18S
HOLLAND        MOSUNNY   79  63  57 SW7       30.19S
GRAND RAPIDS   CLOUDY    79  57  46 SW12      30.19S
IONIA          FAIR      79  56  44 S10       30.19S
KALAMAZOO      MOSUNNY   78  58  49 S12       30.20F
LUDINGTON      CLOUDY    76  61  59 S18G25    30.14S
MARSHALL       MOSUNNY   79  59  50 S7        30.21F
MOUNT PLEASANT SUNNY     81  57  44 SW13      30.17S
MUSKEGON       PTSUNNY   79  61  53 S15G24    30.17F
SOUTH HAVEN    CLOUDY    82  62  50 S7        30.18F
$$
MIZ016>042-232200-
NORTHERN LOWER MICHIGAN

CITY           SKY/WX    TMP DP  RH WIND       PRES   REMARKS
ALPENA         SUNNY     86  55  34 W5        30.11S
BEAVER ISLAND  SUNNY     78  62  58 SW16G25   30.10S
BELLAIRE       SUNNY     82  58  43 S8        30.10F
CADILLAC       CLOUDY    78  59  51 S10G17    30.16S
CHARLEVOIX     SUNNY     81  60  49 SW9G17    30.13F
FRANKFORT      CLOUDY    78  61  55 SW12G22   30.12S
GAYLORD        SUNNY     82  58  43 SW15      30.14S
GRAYLING       SUNNY     81  61  50 SW10G17   30.15F
HARBOR SPRINGS SUNNY     79  64  59 W10G18    30.10F
HOUGHTON LAKE  MOSUNNY   79  60  52 SW9       30.16F
MANISTEE       PTSUNNY   77  59  53 SW13G21   30.13S
OSCODA         SUNNY     83  59  44 SW16G29   30.13S
PELLSTON       SUNNY     81  61  50 W12       30.11S
ROGERS CITY    SUNNY     82  63  51 NE8       30.10S
TRAVERSE CITY  CLOUDY    82  60  47 VRB6      30.09F
$$
MIZ007>008-015-232200-
EASTERN UPPER MICHIGAN

CITY           SKY/WX    TMP DP  RH WIND       PRES   REMARKS
KINROSS        MOSUNNY   78  62  57 SW13G25   30.10R
MACKINAC ISLAN SUNNY     75  62  63 W14G23    30.10S
NEWBERRY       SUNNY     78  61  55 S21G31    30.07S
S. S. MARIE    CLOUDY    81  61  50 SW17G23   30.07R
MUNISING         N/A     82  61  48 S17G29    29.99
$$
MIZ004>006-011>014-085-232200-
CENTRAL UPPER MICHIGAN

CITY           SKY/WX    TMP DP  RH WIND       PRES   REMARKS
MANISTIQUE     SUNNY     72  65  78 S9        30.07S
ESCANABA       MOSUNNY   78  63  59 S15G21    30.03F
MENOMINEE      MOSUNNY  N/A N/A N/A MISG      30.05F
SAWYER-GWINN   SUNNY     82  59  44 SW16G25   30.02F
$$
MIZ001>003-009>011-084-232200-
WESTERN UPPER MICHIGAN

CITY           SKY/WX    TMP DP  RH WIND       PRES   REMARKS
IRON MOUNTAIN  SUNNY     81  61  50 S14       30.02F
HOUGHTON       SUNNY     86  56  35 SW9       29.93F
COPPER HARBOR    N/A     81  64  56 VRB3      29.91F
IRONWOOD       SUNNY     83  63  50 S15G23    29.94S
$$

ABBREVIATIONS USED IN REMARKS
   TC - TEMPERATURE IN CELSIUS
  WCI - WIND CHILL INDEX
   HX - HEAT INDEX
  VSB - VISIBILITY





USA.gov is the U.S. government's official web portal to all federal, state and local government web resources and services.